Grand Marais, MN

2:31 PM CST on February 26, 2017 (GMT -0600)
Grand Marais-Cook County

Weather History for KCKC - August, 2014

Change the Weather History Date:

Tuesday, August 26, 2014

  Actual Average Record
Temperature  
Mean Temperature 53 °F -  
Max Temperature 60 °F 67 °F 84 °F (2013)
Min Temperature 46 °F 48 °F 33 °F (2008)
Degree Days  
Heating Degree Days 12    
Growing Degree Days 3 (Base 50)    
Moisture  
Dew Point 44 °F    
Average Humidity 72    
Maximum Humidity 87    
Minimum Humidity 55    
Precipitation  
Precipitation 0.00 in - - ()
Sea Level Pressure  
Sea Level Pressure 30.07 in    
Wind  
Wind Speed 7 mph (West)    
Max Wind Speed 14 mph    
Max Gust Speed 22 mph    
Visibility 10 miles    
Events      
Averages and records for this station are not official NWS values.
T = Trace of Precipitation, MM = Missing Value Source: NWS Daily Summary

Daily Weather History Graph

Daily Weather History Graph

Search for Another Location

Airport or City:

Trip Planner

Search our weather history database for the weather conditions in past years. The results will help you decide how hot, cold, wet, or windy it might be!

Date:

Astronomy

Aug. 26, 2014 Rise Set
Actual Time 6:11 AM CDT 7:53 PM CDT
Civil Twilight 5:38 AM CDT 8:26 PM CDT
Nautical Twilight 4:58 AM CDT 9:06 PM CDT
Astronomical Twilight 4:15 AM CDT 9:49 PM CDT
Moon 7:20 AM CDT 8:05 PM CDT
Length of Visible Light 14h 47m
Length of Day
13h 42m
New Moon, 1% of the Moon is Illuminated
Aug 26
New Moon
Sep 2
First Quarter
Sep 8
Full
Sep 15
Last Quarter
Sep 24
New

Hourly Weather History & Observations

Time (CDT) Temp. Windchill Dew Point Humidity Pressure Visibility Wind Dir Wind Speed Gust Speed Precip Events Conditions
12:13 AM 53.6 °F - 48.2 °F 82% 29.96 in 10.0 mi WSW 6.9 mph 17.3 mph N/A   Mostly Cloudy
12:34 AM 51.8 °F - 46.4 °F 82% 29.96 in 10.0 mi WSW 6.9 mph - N/A   Scattered Clouds
12:53 AM 51.8 °F - 46.4 °F 82% 29.96 in 10.0 mi West 6.9 mph 16.1 mph N/A   Scattered Clouds
1:13 AM 51.8 °F - 44.6 °F 76% 29.96 in 10.0 mi West 8.1 mph - N/A   Clear
1:34 AM 51.8 °F - 44.6 °F 76% 29.96 in 10.0 mi West 8.1 mph - N/A   Clear
1:53 AM 50.0 °F - 44.6 °F 82% 29.96 in 10.0 mi West 6.9 mph - N/A   Clear
2:14 AM 50.0 °F - 44.6 °F 82% 29.97 in 10.0 mi West 5.8 mph - N/A   Clear
2:33 AM 50.0 °F - 44.6 °F 82% 29.97 in 10.0 mi West 11.5 mph 18.4 mph N/A   Scattered Clouds
2:53 AM 50.0 °F - 44.6 °F 82% 29.98 in 10.0 mi West 5.8 mph - N/A   Clear
3:14 AM 48.2 °F - 42.8 °F 82% 29.98 in 10.0 mi West 6.9 mph - N/A   Clear
3:33 AM 48.2 °F - 42.8 °F 82% 29.98 in 10.0 mi West 6.9 mph 16.1 mph N/A   Clear
3:53 AM 48.2 °F - 42.8 °F 82% 29.97 in 10.0 mi West 5.8 mph - N/A   Clear
4:13 AM 48.2 °F - 42.8 °F 82% 29.98 in 10.0 mi West 4.6 mph - N/A   Clear
4:34 AM 48.2 °F - 42.8 °F 82% 29.98 in 10.0 mi WSW 4.6 mph - N/A   Clear
4:53 AM 46.4 °F 43.5 °F 42.8 °F 87% 29.99 in 10.0 mi WSW 5.8 mph - N/A   Scattered Clouds
5:13 AM 48.2 °F - 42.8 °F 82% 29.98 in 10.0 mi West 6.9 mph - N/A   Mostly Cloudy
5:34 AM 48.2 °F - 42.8 °F 82% 29.99 in 10.0 mi West 5.8 mph - N/A   Mostly Cloudy
5:53 AM 48.2 °F - 42.8 °F 82% 30.01 in 10.0 mi West 4.6 mph - N/A   Overcast
6:13 AM 48.2 °F - 42.8 °F 82% 30.03 in 10.0 mi WSW 5.8 mph - N/A   Mostly Cloudy
6:32 AM 48.2 °F - 42.8 °F 82% 30.04 in 10.0 mi WSW 9.2 mph - N/A   Overcast
6:54 AM 48.2 °F - 42.8 °F 82% 30.05 in 10.0 mi WSW 5.8 mph - N/A   Overcast
7:13 AM 48.2 °F - 42.8 °F 82% 30.06 in 10.0 mi West 9.2 mph - N/A   Overcast
7:34 AM 50.0 °F - 42.8 °F 76% 30.05 in 10.0 mi West 6.9 mph 16.1 mph N/A   Overcast
7:53 AM 50.0 °F - 42.8 °F 76% 30.05 in 10.0 mi West 5.8 mph - N/A   Overcast
8:13 AM 50.0 °F - 42.8 °F 76% 30.06 in 10.0 mi WSW 5.8 mph - N/A   Overcast
8:34 AM 50.0 °F - 42.8 °F 76% 30.06 in 10.0 mi West 8.1 mph - N/A   Overcast
8:53 AM 51.8 °F - 42.8 °F 71% 30.07 in 10.0 mi West 9.2 mph 16.1 mph N/A   Overcast
9:13 AM 51.8 °F - 44.6 °F 76% 30.07 in 10.0 mi WNW 9.2 mph 16.1 mph N/A   Overcast
9:34 AM 51.8 °F - 44.6 °F 76% 30.08 in 10.0 mi West 8.1 mph 18.4 mph N/A   Overcast
9:53 AM 51.8 °F - 44.6 °F 76% 30.09 in 10.0 mi WNW 9.2 mph 16.1 mph N/A   Overcast
10:13 AM 53.6 °F - 44.6 °F 72% 30.09 in 10.0 mi WNW 11.5 mph 19.6 mph N/A   Overcast
10:34 AM 53.6 °F - 42.8 °F 67% 30.10 in 10.0 mi West 11.5 mph 17.3 mph N/A   Overcast
10:53 AM 55.4 °F - 44.6 °F 67% 30.09 in 10.0 mi West 13.8 mph 19.6 mph N/A   Mostly Cloudy
11:13 AM 55.4 °F - 44.6 °F 67% 30.10 in 10.0 mi West 9.2 mph 18.4 mph N/A   Mostly Cloudy
11:34 AM 57.2 °F - 44.6 °F 63% 30.09 in 10.0 mi West 10.4 mph 21.9 mph N/A   Scattered Clouds
11:53 AM 55.4 °F - 44.6 °F 67% 30.09 in 10.0 mi WNW 8.1 mph 16.1 mph N/A   Scattered Clouds
12:13 PM 57.2 °F - 44.6 °F 63% 30.08 in 10.0 mi NW 9.2 mph 19.6 mph N/A   Scattered Clouds
12:33 PM 59.0 °F - 44.6 °F 59% 30.09 in 10.0 mi West 8.1 mph 17.3 mph N/A   Mostly Cloudy
12:54 PM 59.0 °F - 44.6 °F 59% 30.10 in 10.0 mi West 9.2 mph 17.3 mph N/A   Scattered Clouds
1:13 PM 57.2 °F - 44.6 °F 63% 30.10 in 10.0 mi West 6.9 mph - N/A   Scattered Clouds
1:34 PM 57.2 °F - 44.6 °F 63% 30.10 in 10.0 mi WNW 9.2 mph - N/A   Mostly Cloudy
1:53 PM 60.8 °F - 44.6 °F 55% 30.10 in 10.0 mi West 5.8 mph 16.1 mph N/A   Scattered Clouds
2:13 PM 59.0 °F - 44.6 °F 59% 30.10 in 10.0 mi West 8.1 mph 16.1 mph N/A   Scattered Clouds
2:34 PM 59.0 °F - 44.6 °F 59% 30.10 in 10.0 mi WNW 6.9 mph - N/A   Mostly Cloudy
2:53 PM 60.8 °F - 44.6 °F 55% 30.10 in 10.0 mi WNW 5.8 mph - N/A   Mostly Cloudy
3:13 PM 59.0 °F - 44.6 °F 59% 30.10 in 10.0 mi West 9.2 mph - N/A   Scattered Clouds
3:34 PM 60.8 °F - 46.4 °F 59% 30.10 in 10.0 mi West 5.8 mph - N/A   Mostly Cloudy
3:53 PM 59.0 °F - 44.6 °F 59% 30.10 in 10.0 mi WNW 6.9 mph - N/A   Mostly Cloudy
4:14 PM 57.2 °F - 44.6 °F 63% 30.11 in 10.0 mi WNW 6.9 mph - N/A   Mostly Cloudy
4:33 PM 59.0 °F - 44.6 °F 59% 30.11 in 10.0 mi West 5.8 mph - N/A   Overcast
4:53 PM 57.2 °F - 44.6 °F 63% 30.11 in 10.0 mi WNW 10.4 mph - N/A   Overcast
5:13 PM 57.2 °F - 44.6 °F 63% 30.12 in 10.0 mi WNW 9.2 mph 17.3 mph N/A   Overcast
5:34 PM 57.2 °F - 44.6 °F 63% 30.12 in 10.0 mi West 8.1 mph - N/A   Overcast
5:53 PM 57.2 °F - 44.6 °F 63% 30.12 in 10.0 mi WNW 10.4 mph 19.6 mph N/A   Overcast
6:13 PM 55.4 °F - 44.6 °F 67% 30.12 in 10.0 mi West 6.9 mph - N/A   Mostly Cloudy
6:33 PM 55.4 °F - 44.6 °F 67% 30.12 in 10.0 mi West 8.1 mph - N/A   Overcast
6:53 PM 55.4 °F - 44.6 °F 67% 30.12 in 10.0 mi West 8.1 mph - N/A   Overcast
7:13 PM 55.4 °F - 44.6 °F 67% 30.13 in 10.0 mi West 4.6 mph - N/A   Overcast
7:33 PM 53.6 °F - 44.6 °F 72% 30.13 in 10.0 mi WNW 3.5 mph - N/A   Mostly Cloudy
7:53 PM 53.6 °F - 44.6 °F 72% 30.14 in 10.0 mi Calm Calm - N/A   Mostly Cloudy
8:14 PM 53.6 °F - 44.6 °F 72% 30.15 in 10.0 mi West 4.6 mph - N/A   Overcast
8:33 PM 53.6 °F - 44.6 °F 72% 30.15 in 10.0 mi West 3.5 mph - N/A   Overcast
8:54 PM 53.6 °F - 44.6 °F 72% 30.15 in 10.0 mi Calm Calm - N/A   Overcast
9:13 PM 53.6 °F - 44.6 °F 72% 30.15 in 10.0 mi WNW 3.5 mph - N/A   Overcast
9:33 PM 53.6 °F - 44.6 °F 72% 30.15 in 10.0 mi WNW 4.6 mph - N/A   Overcast
9:53 PM 53.6 °F - 44.6 °F 72% 30.16 in 10.0 mi West 3.5 mph - N/A   Overcast
10:13 PM 53.6 °F - 42.8 °F 67% 30.16 in 10.0 mi WNW 4.6 mph - N/A   Overcast
10:33 PM 53.6 °F - 44.6 °F 72% 30.16 in 10.0 mi Calm Calm - N/A   Overcast
10:53 PM 53.6 °F - 44.6 °F 72% 30.16 in 10.0 mi WNW 4.6 mph - N/A   Overcast
11:13 PM 51.8 °F - 42.8 °F 71% 30.16 in 10.0 mi Calm Calm - N/A   Overcast
11:34 PM 51.8 °F - 42.8 °F 71% 30.17 in 10.0 mi Calm Calm - N/A   Overcast